When you browse on this site, cookies collect data to enhance your experience and personalize the content and advertising you see.
Visit our Privacy Policy to learn more. By continuing to use the site, you agree to this use of cookies and data.
  • In Hungary
  • List of Countries
  • For 7 days
  • Water Temperature
  • Weather Map
  • News
  • Weather Widgets
  • user-avatar
    Login

    Hourly Weather Bojsi

    Today, 21 November, Thursday

    Time Temperature Precipitation Wind Pressure Humidity
    00:00 +3°C° 0 mm 1 mps 684 mmHg 77%
    01:00 +2°C° 0 mm 1 mps 684 mmHg 79%
    02:00 +2°C° 0 mm 1 mps 684 mmHg 80%
    03:00 +1°C° 0 mm 1 mps 684 mmHg 80%
    04:00 +1°C° 0 mm 1 mps 684 mmHg 81%
    05:00 +1°C° 0 mm 1 mps 684 mmHg 81%
    06:00 0°C° 0 mm 1 mps 684 mmHg 81%
    07:00 0°C° 0 mm 1 mps 684 mmHg 81%
    08:00 +2°C° 0 mm 1 mps 684 mmHg 72%
    09:00 +4°C° 0 mm 1 mps 685 mmHg 64%
    10:00 +6°C° 0 mm 1 mps 685 mmHg 55%
    11:00 +7°C° 0 mm 1 mps 685 mmHg 52%
    12:00 +8°C° 0 mm 1 mps 685 mmHg 48%
    13:00 +9°C° 0 mm 1 mps 684 mmHg 45%
    14:00 +8°C° 0 mm 1 mps 684 mmHg 50%
    15:00 +6°C° 0 mm 1 mps 684 mmHg 55%
    16:00 +5°C° 0 mm 1 mps 685 mmHg 60%
    17:00 +3°C° 0 mm 0 mps 685 mmHg 63%
    18:00 +2°C° 0 mm 0 mps 685 mmHg 67%
    19:00 +2°C° 0 mm 0 mps 685 mmHg 70%
    20:00 +1°C° 0 mm 0 mps 686 mmHg 70%
    21:00 +1°C° 0 mm 0 mps 686 mmHg 69%
    22:00 +1°C° 0 mm 0 mps 687 mmHg 69%
    23:00 +1°C° 0 mm 0 mps 687 mmHg 69%

    Tomorrow, 22 November, Friday

    Time Temperature Precipitation Wind Pressure Humidity
    00:00 +1°C° 0 mm 0 mps 687 mmHg 68%
    01:00 +1°C° 0 mm 0 mps 687 mmHg 67%
    02:00 0°C° 0 mm 0 mps 687 mmHg 67%
    03:00 0°C° 0 mm 0 mps 687 mmHg 66%
    04:00 0°C° 0 mm 0 mps 687 mmHg 65%
    05:00 0°C° 0 mm 0 mps 687 mmHg 65%
    06:00 0°C° 0 mm 0 mps 688 mmHg 65%
    07:00 0°C° 0 mm 0 mps 688 mmHg 64%
    08:00 +2°C° 0 mm 0 mps 689 mmHg 57%
    09:00 +6°C° 0 mm 1 mps 689 mmHg 49%
    10:00 +8°C° 0 mm 1 mps 690 mmHg 42%
    11:00 +9°C° 0 mm 1 mps 689 mmHg 42%
    12:00 +9°C° 0 mm 2 mps 689 mmHg 41%
    13:00 +10°C° 0 mm 2 mps 688 mmHg 41%
    14:00 +8°C° 0 mm 2 mps 688 mmHg 46%
    15:00 +7°C° 0 mm 2 mps 688 mmHg 51%
    16:00 +5°C° 0 mm 2 mps 688 mmHg 56%
    17:00 +4°C° 0 mm 2 mps 689 mmHg 60%
    18:00 +4°C° 0 mm 1 mps 689 mmHg 63%
    19:00 +3°C° 0 mm 1 mps 689 mmHg 67%
    20:00 +3°C° 0 mm 1 mps 689 mmHg 68%
    21:00 +3°C° 0 mm 1 mps 689 mmHg 68%
    22:00 +2°C° 0 mm 1 mps 690 mmHg 69%
    23:00 +2°C° 0 mm 1 mps 690 mmHg 69%

    Day after tomorrow, 23 November, Saturday

    Time Temperature Precipitation Wind Pressure Humidity
    00:00 +2°C° 0 mm 1 mps 690 mmHg 69%
    01:00 +2°C° 0 mm 1 mps 690 mmHg 69%
    02:00 +1°C° 0 mm 0 mps 690 mmHg 68%
    03:00 +1°C° 0 mm 0 mps 690 mmHg 68%
    04:00 +1°C° 0 mm 0 mps 690 mmHg 67%
    05:00 +1°C° 0 mm 0 mps 690 mmHg 67%
    06:00 +1°C° 0 mm 0 mps 690 mmHg 66%
    07:00 +1°C° 0 mm 0 mps 690 mmHg 65%
    08:00 +3°C° 0 mm 0 mps 691 mmHg 57%
    09:00 +6°C° 0 mm 0 mps 691 mmHg 49%
    10:00 +8°C° 0 mm 0 mps 692 mmHg 40%
    11:00 +10°C° 0 mm 1 mps 691 mmHg 38%
    12:00 +10°C° 0 mm 1 mps 691 mmHg 36%
    13:00 +10°C° 0 mm 2 mps 691 mmHg 34%
    14:00 +10°C° 0 mm 1 mps 690 mmHg 38%
    15:00 +8°C° 0 mm 1 mps 690 mmHg 42%
    16:00 +7°C° 0 mm 1 mps 690 mmHg 46%
    17:00 +6°C° 0 mm 1 mps 690 mmHg 48%
    18:00 +5°C° 0 mm 1 mps 690 mmHg 50%
    19:00 +5°C° 0 mm 1 mps 690 mmHg 52%
    20:00 +5°C° 0 mm 1 mps 690 mmHg 52%
    21:00 +5°C° 0 mm 1 mps 690 mmHg 51%
    22:00 +5°C° 0 mm 1 mps 690 mmHg 50%
    23:00 +5°C° 0 mm 1 mps 690 mmHg 50%

    24 November, Sunday

    Time Temperature Precipitation Wind Pressure Humidity
    00:00 +5°C° 0 mm 1 mps 690 mmHg 49%
    01:00 +5°C° 0 mm 1 mps 689 mmHg 49%
    02:00 +5°C° 0 mm 1 mps 689 mmHg 50%
    03:00 +5°C° 0 mm 1 mps 689 mmHg 51%
    04:00 +5°C° 0 mm 1 mps 689 mmHg 52%
    05:00 +4°C° 0 mm 0 mps 689 mmHg 54%
    06:00 +3°C° 0 mm 0 mps 688 mmHg 56%
    07:00 +3°C° 0 mm 0 mps 688 mmHg 58%
    08:00 +5°C° 0 mm 0 mps 688 mmHg 52%
    09:00 +8°C° 0 mm 1 mps 689 mmHg 46%
    10:00 +10°C° 0 mm 1 mps 689 mmHg 41%
    11:00 +10°C° 0 mm 2 mps 688 mmHg 46%
    12:00 +10°C° 0 mm 3 mps 688 mmHg 52%
    13:00 +10°C° 0 mm 4 mps 687 mmHg 58%
    14:00 +10°C° 0 mm 4 mps 687 mmHg 60%
    15:00 +8°C° 0 mm 4 mps 687 mmHg 63%
    16:00 +8°C° 0 mm 3 mps 687 mmHg 65%
    17:00 +7°C° 0 mm 3 mps 687 mmHg 69%
    18:00 +5°C° 0 mm 2 mps 687 mmHg 73%
    19:00 +4°C° 0 mm 2 mps 687 mmHg 77%
    20:00 +4°C° 0 mm 2 mps 687 mmHg 75%
    21:00 +3°C° 0 mm 2 mps 687 mmHg 74%
    22:00 +1°C° 0 mm 3 mps 687 mmHg 72%
    23:00 +1°C° 0 mm 3 mps 686 mmHg 70%

    25 November, Monday

    Time Temperature Precipitation Wind Pressure Humidity
    00:00 0°C° 0 mm 3 mps 686 mmHg 67%
    01:00 0°C° 0 mm 3 mps 686 mmHg 65%
    02:00 -1°C° 0 mm 2 mps 686 mmHg 66%
    03:00 -1°C° 0 mm 2 mps 685 mmHg 67%
    04:00 -1°C° 0 mm 2 mps 685 mmHg 69%
    05:00 -1°C° 0 mm 2 mps 685 mmHg 71%
    06:00 -1°C° 0 mm 2 mps 685 mmHg 73%
    07:00 -2°C° 0 mm 2 mps 685 mmHg 75%
    08:00 0°C° 0 mm 3 mps 685 mmHg 69%
    09:00 0°C° 0 mm 4 mps 685 mmHg 63%
    10:00 +1°C° 0 mm 6 mps 685 mmHg 56%
    11:00 +2°C° 0 mm 6 mps 685 mmHg 52%
    12:00 +2°C° 0 mm 7 mps 684 mmHg 47%
    13:00 +2°C° 0 mm 8 mps 684 mmHg 43%
    14:00 +2°C° 0 mm 7 mps 684 mmHg 43%
    15:00 +2°C° 0 mm 6 mps 684 mmHg 43%
    16:00 +1°C° 0 mm 5 mps 684 mmHg 43%
    17:00 0°C° 0 mm 4 mps 684 mmHg 47%
    18:00 0°C° 0 mm 3 mps 684 mmHg 50%
    19:00 -1°C° 0 mm 2 mps 684 mmHg 54%
    20:00 0°C° 0 mm 1 mps 684 mmHg 56%
    21:00 0°C° 0 mm 1 mps 684 mmHg 59%
    22:00 -2°C° 0 mm 0 mps 684 mmHg 62%
    23:00 -1°C° 0.1 mm 1 mps 684 mmHg 67%

    26 November, Tuesday

    Time Temperature Precipitation Wind Pressure Humidity
    00:00 0°C° 0.1 mm 1 mps 684 mmHg 72%
    01:00 0°C° 0.1 mm 1 mps 684 mmHg 77%
    02:00 0°C° 0.3 mm 1 mps 683 mmHg 81%
    03:00 0°C° 0.3 mm 1 mps 683 mmHg 85%
    04:00 -1°C° 0.3 mm 1 mps 683 mmHg 89%
    05:00 -1°C° 0.2 mm 1 mps 683 mmHg 90%
    06:00 -2°C° 0.2 mm 0 mps 683 mmHg 90%
    07:00 -2°C° 0.2 mm 0 mps 683 mmHg 91%
    08:00 0°C° 0.1 mm 1 mps 683 mmHg 81%
    09:00 +1°C° 0.1 mm 1 mps 683 mmHg 72%
    10:00 +2°C° 0.1 mm 1 mps 682 mmHg 63%
    11:00 +2°C° 0 mm 1 mps 682 mmHg 57%
    12:00 +3°C° 0 mm 1 mps 681 mmHg 51%
    13:00 +3°C° 0 mm 1 mps 680 mmHg 45%
    14:00 +2°C° 0 mm 1 mps 680 mmHg 49%
    15:00 +1°C° 0 mm 1 mps 680 mmHg 53%
    16:00 0°C° 0 mm 1 mps 679 mmHg 57%
    17:00 -2°C° 0 mm 2 mps 679 mmHg 60%
    18:00 -3°C° 0 mm 2 mps 679 mmHg 63%
    19:00 -4°C° 0 mm 2 mps 679 mmHg 65%
    20:00 -4°C° 0 mm 2 mps 679 mmHg 66%
    21:00 -5°C° 0 mm 2 mps 679 mmHg 67%
    22:00 -5°C° 0 mm 2 mps 679 mmHg 68%
    23:00 -5°C° 0 mm 2 mps 679 mmHg 68%
    Show more